NOAA 16 DEB, 41503

Orbit data source: Space-Track

NOAA 16 DEB, 41503 is space debris in SSO originally from a launch on Thu, 21 Sep 2000 UTC launched from the Air Force Western Test Range (AFWTR). Debris objects in space refer to the collection of defunct objects orbiting the Earth. Examples of debris include non-operational satellites, rocket bodies, and fragments generated from explosions, collisions, or faulty payload assembly.

Loading next visibility...
Identifier
41503, 2000-055MB
Orbit
SSO
Country
Flag of USUS
Related business
Manufacturer
Unknown
Mission
Spacecraft
Bus & Motor
Unknown
Mass
Unknown
Launch date (UTC)
2000-09-21 (26 years ago)
Launch vehicle
Unknown
Launch site
Air Force Western Test Range (AFWTR)
Object type
Payload
Rocket body
Debris
Shape & HBR
Unknown shape, 0.1 m
Radar Cross Section
Small (<0.1 m²)

Expand to show TLE details & history
Last TLE update: 3 days ago

TLE from 3 days ago
0 NOAA 16 DEB
1 41503U 00055MB  26175.66353218  .00011500  00000-0  22259-2 0  9997
2 41503  98.7765 323.4248 0020059  43.8465 316.4323 14.63370203537072
Epoch: 2026-06-24T15:55Z
TLE epoch observation values (Epoch: 2026-06-24T15:55:29.180Z)
Latitude
-0.00004°
Longitude
171.73571°
Altitude
675.034 km
Speed
7.525 km/s
True Right ascension
21h 33m 41s
True Declination
0° 00' 00"
Sunlit
Object was in full shadow at epoch
Visualization orbit readout
Latitude
Unknown
Longitude
Unknown
Altitude
Unknown
Speed
Unknown
Apparent Right ascension
Unknown
Apparent Declination
Unknown
Sunlit
N/A
Visualization observer readout
Local Sidereal Time
04:39:11
Azimuth
Unknown
Elevation
Unknown
Doppler factor
Unknown
Orbital elements
Apogee altitude
693.574 km
Perigee altitude
665.26 km
Semi-major axis
7,057.554 km
Eccentricity
0.00201
Inclination
98.7765°
RAAN
323.4248°
Arg. of periapsis
43.8465°
True anomaly
316.27359°
Mean anomaly
316.4323°
Eccentric anomaly
316.35297°
Mean motion
3.66068 °/min
Orbital period
98.34 mins
BSTAR
0.0022259
Loading maneuver chart data...
Computing Atmospheric mass density...
Loading historical data...
Loading historical data...
Loading historical data...
Loading historical data...
Loading historical data...
Loading historical data...
Loading historical data...

Documentation

Showing up to 5 results
|